Probability
0 0 0 0 0 0 0 0 0 0 0 0 0 0 0 0 0 0 0 0 0 0 0 0 0 0 0 0 0 0 0 0 0 0 0 0 0 0 0 0 0 0 0
0 0 0 0 0 0 0 0 0 0 0 0 0 0 0 0 0 0 0 0 0 0 0 0 0 0 0 0 0 0 0 0 0 0 0 0 0 0 0 0 0 0 0
0 0 0 0 0 0 0 0 0 0 0 0 0 0 0 0 0 0 0 0 0 0 0 0 0 0 0 0 0 0 0 0 0 0 0 0 0 0 0 0 0 0 0
0 0 0 0 0 0 0 0 0 0 0 0 0 0 0 0 0 0 0 0 0 0 0 0 0 0 0 0 0 0 0 0 0 0 0 0 0 0 0 0 0 0 0
0 0 0 0 0 0 0 0 0 0 0 0 0 0 0 0 0 0 0 0 0 0 0 0 0 0 0 0 0 0 0 0 0 0 0 0 0 0 0 0 0 0 0
0 0 0 0 0 0 0 0 0 0 0 0 0 0 0 0 0 0 0 0 0 0 0 0 0 0 0 0 0 0 0 0 0 0 0 0 0 0 0 0 0 0 0
0 0 0 0 0 0 0 0 0 0 0 0 0 0 0 0 0 0 0 0 0 0 0 0 0 0 0 0 0 0 0 0 0 0 0 0 0 0 0 0 0 0 0
0 0 0 0 0 0 0 0 0 0 0 0 0 0 0 0 0 0 0 0 0 0 0 0 0 0 0 0 0 0 0 0 0 0 0 0 0 0 0 0 0 0 0
0 0 0 0 0 0 0 0 0 0 0 0 0 0 0 0 0 0 0 0 0 0 0 0 0 0 0 0 0 0 0 0 0 0 0 0 0 0 0 0 0 0 0
0 0 0 0 0 0 0 0 0 0 0 0 0 0 0 0 0 0 0 0 0 0 0 0 0 0 0 0 0 0 0 0 0 0 0 0 0 0 0 0 0 0 0
0 0 0 0 0 0 0 0 0 0 0 0 0 0 0 0 0 0 0 0 0 0 0 0 0 0 0 0 0 0 0 0 0 0 0 0 0 0 0 0 0 0 0
0 0 0 0 0 0 0 0 0 0 0 0 0 0 0 0 0 0 0 0 0 0 0 0 0 0 0 0 0 0 0 0 0 0 0 0 0 0 0 0 0 0 0
0 0 0 0 0 0 0 0 0 0 0 0 0 0 0 0 0 0 0 0 0 0 0 0 0 0 0 0 0 0 0 0 0 0 0 0 0 0 0 0 0 0 0
0 0 0 0 0 0 0 0 0 0 0 0 0 0 0 0 0 0 0 0 0 0 0 0 0 0 0 0 0 0 0 0 0 0 0 0 0 0 0 0 0 0 0
0 0 0 0 0 0 0 0 0 0 0 0 0 0 0 0 0 0 0 0 0 0 0 0 0 0 0 0 0 0 0 0 0 0 0 0 0 0 0 0 0 0 0
0 0 0 0 0 0 0 0 0 0 0 0 0 0 0 0 0 0 0 0 0 0 0 0 0 0 0 0 0 0 0 0 0 0 0 0 0 0 0 0 0 0 0
0 0 0 0 0 0 0 0 0 0 0 0 0 0 0 0 0 0 0 0 0 0 0 0 0 0 0 0 0 0 0 0 0 0 0 0 0 0 0 0 0 0 0
0 0 0 0 0 0 0 0 0 0 0 0 0 0 0 0 0 0 0 0 0 0 0 0 0 0 0 0 0 0 0 0 0 0 0 0 0 0 0 0 0 0 0
0 0 0 0 0 0 0 0 0 0 0 0 0 0 0 0 0 0 0 0 0 0 0 0 0 0 0 0 0 0 0 0 0 0 0 0 0 0 0 0 0 0 0
0 0 0 0 0 0 0 0 0 0 0 0 0 0 0 0 0 0 0 0 0 0 0 0 0 0 0 0 0 0 0 0 0 0 0 0 0 0 0 0 0 0 0
0 0 0 0 0 0 0 0 0 0 0 0 0 0 0 0 0 0 0 0 0 0 0 0 0 0 0 0 0 0 0 0 0 0 0 0 0 0 0 0 0 0 0
0 0 0 0 0 0 0 0 0 0 0 0 0 0 0 0 0 0 0 0 0 0 0 0 0 0 0 0 0 0 0 0 0 0 0 0 0 0 0 0 0 0 0
0 0 0 0 0 0 0 0 0 0 0 0 0 0 0 0 0 0 0 0 0 0 0 0 0 0 0 0 0 0 0 0 0 0 0 0 0 0 0 0 0 0 0
0 0 0 0 0 0 0 0 0 0 0 0 0 0 0 0 0 0 0 0 0 0 0 0 0 0 0 0 0 0 0 0 0 0 0 0 0 0 0 0 0 0 0
0 0 0 0 0 0 0 0 0 0 0 0 0 0 0 0 0 0 0 0 0 0 0 0 0 0 0 0 0 0 0 0 0 0 0 0 0 0 0 0 0 0 0
0 0 0 0 0 0 0 0 0 0 0 0 0 0 0 0 0 0 0 0 0 0 0 0 0 0 0 0 0 0 0 0 0 0 0 0 0 0 0 0 0 0 0
Height
5656 5660 5664 5667 5671 5674 5678 5681 5684 5688 5690 5693 5695 5696 5698 5700 5701 5701 5701 5702 5702 5702 5702 5701 5700 5699 5698 5697 5695 5693 5690 5688 5686 5684 5679 5674 5669 5664 5658 5652 5646 5640 5634
5647 5651 5654 5658 5662 5665 5669 5672 5676 5679 5681 5684 5686 5688 5690 5691 5692 5693 5693 5693 5694 5693 5693 5692 5692 5691 5689 5688 5686 5684 5681 5678 5676 5673 5669 5664 5659 5653 5648 5642 5635 5629 5623
5638 5642 5646 5649 5653 5656 5660 5663 5666 5669 5672 5675 5677 5679 5681 5682 5683 5684 5685 5685 5685 5684 5684 5684 5683 5682 5680 5679 5677 5675 5672 5669 5666 5663 5659 5654 5648 5642 5637 5631 5625 5618 5612
5629 5633 5637 5641 5644 5647 5650 5654 5657 5660 5663 5666 5668 5670 5672 5673 5674 5675 5675 5676 5676 5675 5675 5674 5674 5673 5671 5670 5668 5666 5663 5660 5656 5652 5648 5643 5638 5632 5626 5621 5616 5609 5602
5620 5624 5628 5631 5635 5638 5641 5644 5648 5651 5654 5656 5659 5661 5663 5664 5665 5666 5666 5667 5667 5666 5666 5665 5665 5664 5662 5661 5659 5656 5653 5650 5646 5642 5638 5633 5628 5622 5617 5611 5605 5599 5593
5611 5615 5619 5622 5626 5629 5632 5635 5639 5642 5645 5647 5650 5652 5654 5655 5656 5656 5657 5658 5658 5658 5657 5657 5656 5655 5653 5651 5649 5646 5643 5640 5636 5633 5628 5623 5618 5612 5606 5600 5594 5590 5585
5603 5606 5610 5613 5616 5619 5623 5626 5629 5633 5636 5638 5640 5642 5644 5646 5647 5648 5648 5649 5649 5649 5649 5648 5647 5646 5644 5642 5640 5637 5633 5629 5626 5622 5618 5613 5608 5602 5597 5591 5585 5579 5574
5594 5597 5601 5604 5607 5610 5613 5617 5620 5623 5626 5629 5631 5633 5635 5636 5637 5638 5639 5640 5640 5640 5640 5640 5639 5637 5635 5633 5631 5628 5625 5621 5617 5613 5608 5603 5598 5592 5586 5581 5576 5571 5565
5585 5588 5592 5595 5598 5601 5604 5608 5611 5614 5617 5619 5622 5624 5626 5627 5628 5629 5630 5631 5631 5631 5631 5631 5630 5628 5626 5624 5623 5620 5617 5613 5608 5603 5598 5593 5588 5583 5577 5573 5568 5563 5558
5577 5580 5583 5586 5589 5593 5596 5599 5601 5604 5607 5610 5612 5615 5616 5618 5619 5620 5621 5623 5623 5623 5622 5622 5620 5619 5617 5615 5613 5611 5608 5604 5600 5595 5590 5585 5579 5574 5569 5565 5560 5555 5550
5568 5571 5575 5578 5581 5584 5587 5590 5592 5595 5598 5600 5603 5606 5607 5609 5610 5612 5613 5614 5614 5614 5614 5613 5611 5610 5608 5606 5604 5601 5598 5595 5591 5586 5582 5577 5572 5567 5562 5557 5552 5547 5542
5560 5563 5566 5569 5572 5575 5578 5581 5583 5586 5589 5591 5594 5596 5598 5600 5601 5603 5604 5604 5605 5605 5605 5604 5603 5601 5600 5598 5595 5592 5589 5585 5582 5578 5573 5569 5565 5560 5555 5550 5545 5540 5536
5552 5555 5557 5560 5563 5566 5569 5572 5575 5577 5580 5582 5585 5587 5589 5591 5592 5594 5595 5595 5596 5596 5596 5595 5594 5593 5591 5589 5586 5583 5580 5577 5573 5570 5566 5562 5557 5553 5548 5544 5539 5535 5530
5544 5546 5549 5551 5554 5557 5560 5563 5566 5568 5571 5573 5575 5578 5580 5582 5583 5585 5586 5586 5587 5587 5587 5587 5585 5584 5582 5580 5577 5575 5572 5569 5565 5562 5558 5555 5551 5547 5542 5538 5534 5530 5526
5535 5537 5540 5542 5545 5548 5551 5554 5557 5560 5562 5564 5566 5569 5571 5573 5574 5575 5576 5577 5578 5578 5578 5578 5577 5576 5574 5572 5569 5567 5564 5562 5558 5555 5552 5549 5545 5541 5537 5533 5529 5525 5521
5527 5530 5532 5534 5537 5540 5543 5546 5548 5551 5553 5555 5558 5560 5562 5564 5565 5566 5567 5568 5569 5570 5570 5569 5569 5568 5566 5564 5562 5560 5558 5555 5552 5549 5546 5543 5540 5536 5533 5529 5525 5521 5517
5519 5522 5524 5526 5529 5532 5534 5537 5540 5543 5545 5547 5549 5551 5553 5555 5556 5558 5559 5560 5561 5561 5562 5561 5561 5560 5559 5557 5555 5553 5551 5549 5546 5544 5541 5538 5535 5531 5528 5524 5521 5517 5514
5511 5514 5516 5518 5521 5523 5526 5529 5532 5535 5537 5539 5541 5543 5545 5547 5548 5550 5551 5552 5553 5554 5554 5553 5553 5552 5551 5550 5548 5547 5545 5543 5541 5539 5536 5534 5530 5527 5523 5520 5517 5513 5510
5503 5506 5508 5511 5513 5516 5518 5521 5524 5527 5529 5531 5533 5535 5537 5539 5541 5542 5544 5545 5546 5546 5546 5546 5545 5545 5544 5543 5542 5541 5539 5538 5536 5534 5532 5529 5526 5522 5519 5516 5513 5510 5507
5496 5498 5501 5503 5506 5508 5511 5514 5517 5520 5522 5524 5526 5528 5530 5532 5534 5535 5536 5537 5538 5538 5538 5538 5538 5538 5537 5537 5536 5535 5534 5533 5531 5529 5527 5524 5521 5518 5515 5513 5510 5507 5505
5489 5491 5494 5496 5499 5502 5504 5507 5510 5512 5515 5517 5519 5521 5523 5525 5526 5528 5529 5530 5530 5531 5531 5531 5531 5531 5531 5530 5530 5529 5528 5527 5526 5524 5522 5519 5517 5514 5512 5510 5507 5505 5502
5482 5484 5487 5489 5492 5495 5497 5500 5503 5505 5508 5510 5512 5514 5516 5518 5519 5521 5522 5523 5523 5524 5524 5524 5524 5524 5524 5524 5524 5524 5523 5522 5521 5519 5517 5515 5513 5511 5509 5507 5504 5502 5500
5475 5477 5480 5482 5485 5488 5490 5493 5495 5498 5501 5503 5505 5507 5509 5511 5512 5514 5515 5516 5517 5517 5518 5518 5518 5518 5518 5519 5518 5518 5518 5517 5516 5515 5513 5512 5510 5508 5506 5504 5501 5499 5497
5468 5470 5473 5475 5477 5480 5483 5486 5488 5491 5493 5496 5498 5500 5502 5504 5506 5507 5508 5509 5510 5511 5511 5512 5512 5512 5513 5513 5513 5513 5513 5513 5512 5511 5510 5508 5507 5505 5502 5500 5498 5496 5494
5460 5463 5465 5468 5470 5473 5476 5478 5481 5484 5486 5489 5491 5493 5495 5497 5499 5500 5502 5503 5504 5504 5505 5506 5506 5507 5507 5508 5508 5509 5509 5508 5508 5507 5506 5505 5503 5501 5499 5497 5495 5493 5491
5453 5456 5458 5461 5463 5466 5469 5471 5474 5477 5479 5482 5484 5486 5488 5490 5492 5494 5495 5496 5497 5498 5499 5500 5501 5501 5502 5502 5503 5504 5504 5504 5503 5503 5502 5501 5499 5498 5496 5494 5492 5490 5489
Wind_Speed
44 43 43 43 43 43 43 43 42 41 40 38 38 38 37 37 37 37 37 36 36 37 37 37 37 36 37 37 38 39 39 40 41 41 43 45 46 48 48 50 50 50 50
42 42 43 43 43 44 43 42 42 41 40 39 38 37 38 37 36 37 37 37 37 37 37 36 37 37 38 38 38 39 40 41 42 42 44 46 47 48 49 49 49 49 49
42 42 42 43 44 44 43 42 42 42 40 39 38 38 37 37 37 37 37 37 37 37 37 37 37 37 37 38 39 40 41 41 42 43 45 46 47 48 48 47 48 49 48
42 42 41 42 42 42 43 42 42 41 41 40 38 38 37 37 37 38 37 37 37 36 36 37 37 37 37 38 39 40 41 42 43 44 46 46 46 46 47 47 47 47 46
42 41 41 42 42 42 42 42 41 41 40 40 39 39 38 37 37 37 37 37 37 36 36 36 36 37 37 38 39 40 41 42 43 44 45 45 45 45 46 46 46 45 44
40 40 41 41 41 41 41 42 41 40 40 39 39 38 38 37 36 36 37 37 36 36 36 36 35 36 37 38 39 40 42 42 43 43 44 44 45 45 45 45 44 43 42
38 39 39 39 39 39 40 40 40 40 39 39 38 38 38 38 37 36 36 37 37 36 36 35 35 36 37 38 39 40 41 42 43 43 43 44 44 44 43 42 42 42 42
37 38 38 38 37 38 38 39 40 40 39 38 37 37 37 37 37 36 36 36 36 36 36 36 36 38 38 38 39 39 40 41 42 42 43 43 43 42 42 41 41 41 40
36 37 37 37 37 37 37 38 39 39 39 38 37 37 36 36 36 36 36 36 35 35 36 36 37 38 38 39 38 38 39 41 42 42 42 42 42 41 40 40 40 39 37
34 34 35 36 37 37 37 37 37 38 39 39 38 37 37 37 36 36 35 35 35 35 35 36 36 37 37 38 37 38 39 40 41 41 41 40 40 39 39 39 39 37 35
34 34 34 35 36 36 36 36 36 37 37 38 38 38 38 37 36 36 36 36 36 36 36 36 36 36 36 37 37 38 39 39 39 39 39 38 37 37 37 37 36 35 33
32 33 33 34 35 35 36 36 36 36 36 37 37 37 37 37 37 37 36 36 36 36 36 36 35 35 35 37 37 38 38 37 37 37 36 35 35 35 35 35 34 33 32
32 32 32 33 35 35 35 35 35 36 36 36 37 37 37 36 36 37 37 36 36 36 35 35 34 35 36 36 37 37 36 35 35 34 33 33 33 33 32 32 31 31 30
32 32 33 33 34 35 35 35 35 35 35 35 36 36 36 36 36 35 36 36 35 35 34 34 34 34 35 36 35 34 33 32 32 31 31 31 31 30 30 30 29 28 27
31 31 32 32 34 34 34 34 34 34 34 34 34 35 35 35 34 34 34 33 33 33 33 32 32 32 33 33 32 30 30 30 30 29 29 28 28 28 28 28 27 26 25
31 30 31 31 32 32 32 33 33 33 32 33 33 33 33 33 32 32 32 31 31 31 31 31 31 31 31 30 28 28 28 28 27 27 26 26 26 27 27 26 25 24 23
31 30 30 30 31 31 31 32 33 32 32 32 31 31 31 30 30 30 29 29 29 29 29 29 29 29 28 27 26 25 26 26 25 24 24 25 25 25 25 24 23 22 21
31 30 30 30 30 30 30 30 31 30 30 30 30 30 30 29 29 29 28 27 27 28 28 28 28 27 26 25 24 24 24 23 23 23 23 24 24 24 23 22 21 20 19
30 29 29 29 29 29 29 29 29 28 28 28 29 29 28 28 27 27 27 26 26 26 26 26 26 25 24 23 23 22 22 22 21 22 22 23 23 22 21 20 19 19 18
27 28 28 28 28 28 28 28 27 27 27 26 27 27 27 27 26 26 26 26 26 25 24 24 24 24 23 22 21 21 20 20 20 21 21 21 21 21 19 18 17 17 17
27 27 27 27 27 27 28 27 27 27 26 26 25 25 24 25 25 25 26 26 25 24 23 23 23 23 22 22 21 20 19 19 19 20 20 20 20 19 18 17 16 16 17
26 26 26 27 27 27 27 27 27 27 26 25 25 25 24 24 24 24 24 24 23 23 23 23 22 22 21 20 19 19 18 18 18 18 18 18 18 17 16 15 15 16 16
26 26 26 26 26 26 27 27 26 26 26 26 25 25 24 24 23 23 23 22 22 22 22 21 20 20 20 19 18 17 16 16 17 17 17 16 16 16 15 15 16 16 16
25 25 25 26 26 26 26 26 26 26 25 25 24 24 24 23 23 22 22 21 21 21 20 19 19 18 19 18 17 16 16 16 16 16 15 15 15 16 15 15 15 15 15
24 24 24 25 25 25 26 26 26 25 25 25 24 24 24 23 22 22 22 21 20 19 18 18 18 17 17 17 16 16 16 16 16 15 15 15 15 15 15 15 14 14 14
24 24 24 24 24 25 25 26 26 25 25 25 24 24 23 23 22 22 21 20 19 19 18 18 17 17 17 17 16 16 16 16 16 16 15 15 14 14 14 14 14 13 13
Wind_Direction
239 240 241 241 242 243 245 247 247 249 251 254 256 258 259 261 262 264 267 270 272 274 274 277 279 281 283 285 287 290 292 295 296 298 300 301 302 303 304 305 306 307 307
238 240 242 242 243 244 245 246 247 248 250 253 255 257 259 261 263 265 267 269 272 274 274 277 279 280 282 284 288 291 293 296 297 299 300 302 303 305 305 305 306 308 308
238 239 241 242 243 245 245 246 247 249 250 252 255 257 259 262 263 266 268 269 271 273 274 276 278 280 282 285 288 291 293 296 298 300 302 303 304 306 306 306 307 308 308
239 240 240 242 244 246 246 246 247 249 251 252 254 256 260 262 264 266 267 267 269 272 275 276 278 279 281 285 289 291 294 296 298 301 303 303 305 306 306 307 307 307 308
240 241 242 242 244 246 246 247 248 250 252 253 253 256 260 263 265 267 267 268 270 273 275 276 278 279 282 286 289 292 294 297 299 301 303 304 305 306 307 307 308 308 308
239 241 242 244 245 246 247 248 249 251 252 252 253 256 259 262 265 266 268 269 270 272 274 276 279 282 284 287 290 292 295 297 300 302 303 304 306 307 307 308 309 309 310
239 241 242 243 245 246 246 247 248 250 252 253 254 257 259 261 263 265 268 269 269 272 274 276 280 284 287 289 290 293 295 298 301 302 303 304 306 307 308 309 310 311 312
242 243 244 245 246 246 246 246 248 250 251 252 253 256 258 261 263 265 267 268 270 272 273 276 281 284 287 290 291 293 296 298 300 301 303 304 306 307 308 309 311 312 312
244 245 245 246 247 248 247 246 248 250 251 252 254 255 257 260 262 264 266 267 270 272 275 278 281 284 287 289 291 294 296 298 300 301 303 305 306 307 308 309 311 312 313
243 245 246 247 248 248 247 247 249 250 250 252 253 255 257 260 262 263 265 268 270 273 277 280 283 285 287 289 291 294 296 298 299 301 302 304 306 307 307 309 312 313 313
244 245 246 247 248 248 248 248 249 250 250 251 253 255 258 260 261 264 266 268 270 275 277 280 283 284 287 290 292 295 297 298 299 301 302 304 305 306 307 309 312 313 314
245 246 246 247 247 248 248 248 249 251 252 252 253 255 257 259 262 264 267 269 272 275 278 280 282 284 288 291 293 295 297 298 300 302 303 304 305 306 307 310 312 314 315
245 246 247 247 247 247 248 248 250 252 254 254 254 254 256 259 262 264 267 269 271 274 277 279 281 284 289 291 294 296 297 298 301 303 304 306 306 308 309 311 313 315 317
245 246 247 248 247 247 248 249 250 252 254 255 254 254 256 259 262 265 268 269 270 272 276 279 282 285 289 292 295 295 297 299 301 303 304 306 308 309 310 312 314 316 317
244 246 246 247 247 247 247 248 249 251 252 253 254 254 256 259 262 264 266 268 270 270 274 278 283 287 289 291 292 293 296 298 301 302 304 307 309 311 312 313 315 316 318
244 245 246 247 248 248 248 248 249 250 252 254 255 255 256 258 261 264 265 266 268 271 274 278 283 286 288 289 289 290 293 297 300 302 305 308 310 312 313 313 315 316 318
245 246 248 249 249 249 249 248 249 251 253 254 253 253 255 258 260 262 263 267 269 271 275 278 282 286 287 287 287 288 292 295 298 301 305 309 311 313 314 314 314 315 317
247 247 248 249 249 248 247 247 248 249 251 252 252 253 255 256 257 259 262 266 269 271 274 277 281 283 285 284 286 288 290 293 297 300 304 308 311 313 315 314 314 316 319
246 247 248 248 249 249 247 247 248 249 251 251 251 253 254 255 257 258 261 264 268 271 273 276 278 281 282 283 285 287 288 291 294 297 302 307 312 314 313 312 314 318 321
244 245 246 247 247 247 247 247 247 249 250 250 251 252 255 257 257 259 261 263 267 270 272 274 276 278 279 280 283 283 287 290 292 297 302 307 311 313 312 311 313 318 322
245 246 246 245 245 246 245 245 246 248 249 249 250 252 255 258 258 260 262 264 267 269 271 271 274 275 276 277 278 280 285 288 291 298 303 308 311 310 309 309 311 317 321
245 245 244 244 244 244 244 244 245 246 247 249 250 252 255 258 259 259 260 262 265 267 269 270 271 271 272 273 275 278 281 285 291 298 304 307 309 309 307 309 311 315 319
245 245 243 242 243 244 245 245 245 246 248 249 251 252 254 257 259 259 259 260 263 266 268 268 268 268 268 270 272 275 279 283 288 296 302 305 305 307 308 310 311 313 318
245 245 243 243 244 244 244 243 244 246 247 249 250 251 252 254 256 257 257 260 263 264 265 265 267 268 266 266 269 271 276 281 286 293 299 300 302 307 309 310 311 312 315
245 245 244 243 243 242 242 242 244 246 247 248 249 249 250 252 253 253 256 260 260 260 262 264 266 266 265 264 265 268 272 277 282 288 293 297 301 305 309 311 311 312 313
244 243 243 243 243 243 243 243 244 246 246 248 249 250 249 249 250 252 256 257 256 258 260 261 264 265 264 262 262 265 269 273 277 283 289 295 299 304 310 312 312 313 314